Regional Weather Roundup
Issued by NWS

Home | Current Version | Previous Version | Text Only | Print | Product List | Glossary On
Versions: 1 2 3 4 5 6 7 8 9 10 11 12 13 14 15 16 17 18 19 20 21 22 23 24 25 26 27 28 29 30 31 32 33 34 35 36 37 38 39 40 41 42 43 44 45 46 47 48 49 50
000
ASUS46 KLOX 202212
RWRCA

SOUTHERN CALIFORNIA WEATHER ROUNDUP
NATIONAL WEATHER SERVICE OXNARD CALIFORNIA
300 PM PDT SUN APR 20 2014

NOTE: "FAIR" INDICATES FEW OR NO CLOUDS BELOW 12,000 FEET WITH NO
SIGNIFICANT WEATHER AND/OR OBSTRUCTIONS TO VISIBILITY.

  -  STATIONS PRECEEDED BY AN ASTERISK (*) ARE NOT NWS OR FAA
     STATIONS AND ARE NOT SUBJECT TO NWS AND FAA QUALITY CONTROL.

CAZ041-042-087-202300-
LA AND ORANGE COUNTY COASTAL AREAS


CITY           SKY/WX    TMP DP  RH WIND       PRES   REMARKS
L.A. DOWNTOWN  SUNNY     72  56  57 CALM      30.01F
L.A. AIRPORT   MOSUNNY   67  55  65 SW13      30.04F
LONG BEACH     SUNNY     72  53  51 S8        30.02F

CITY           SKY/WX    TMP DP  RH WIND       PRES   REMARKS
AVALON           N/A     68 N/A N/A N5          N/A
FULLERTON      SUNNY     76  57  51 S8        30.00F
*GETTY CENTER    N/A     73  55  53 SW9         N/A
HAWTHORNE      SUNNY     69  53  56 W12       30.03F
*LOS ALAMITOS  SUNNY     72  57  59 SW12      30.02F
*REDONDO BEACH   N/A     68  58  71 W5        30.02F
SANTA ANA      MOSUNNY   72  56  57 S10       30.02F
STA MONICA APT SUNNY     70  56  61 W8        30.03F
TORRANCE       SUNNY     73  59  60 W14       30.03F
*UCLA            N/A     68  54  60 S5        30.00F

$$

CAZ547-548-048-202300-
LA COUNTY VALLEYS AND INLAND EMPIRE


CITY           SKY/WX    TMP DP  RH WIND       PRES   REMARKS
BURBANK        SUNNY     79  51  37 S8        30.00F
VAN NUYS       SUNNY     82  52  35 S8        29.99F

CITY           SKY/WX    TMP DP  RH WIND       PRES   REMARKS
CORONA AIRPORT CLEAR     82  55  39 W15G23    30.00F
*CHATSWORTH      N/A     83  56  39 W18       29.97S
CHINO          MOSUNNY   83  53  35 W13       30.01F
*CLAREMONT       N/A     82  47  28 SW8         N/A
MARCH AFB      SUNNY     84  50  30 NW15      30.01F
ONTARIO        MOSUNNY   84  50  30 W13       30.00F
*PASADENA        N/A     82  59  44 E1          N/A
POMONA         SUNNY     81  50  34 W12G17    30.04F
RIVERSIDE      SUNNY     84  50  30 W14       29.99F
SAN BERNARDINO MOSUNNY   84  41  21 SW9       30.00F
*SAN GABRIEL     N/A     79  50  35 SW6       29.97F
*WHITEMAN AP   SUNNY     81  48  32 SE8       30.04F
*WOODLAND HILL   N/A     84  50  30 SE6         N/A

$$

CAZ054-055-202300-
LA AND SAN BERNARDINO COUNTY MOUNTAINS


CITY           SKY/WX    TMP DP  RH WIND       PRES   REMARKS
*ACTON           N/A     84  43  23 W10         N/A
*BIG BEAR AIRP PTCLDY    63  30  29 W12       30.25S
*BIG PINES       N/A     68  34  28 SW2         N/A
MT WILSON NWS    N/A     66  46  48 SW8         N/A
SANDBERG       SUNNY     71  38  29 N14       30.17R

$$

CAZ028-029-059-060-099-202300-
ANTELOPE VALLEY AND SURROUNDING AREAS


CITY           SKY/WX    TMP DP  RH WIND       PRES   REMARKS
LANCASTER      SUNNY     85  34  16 W15       30.02F
PALMDALE       SUNNY     84  35  17 MISG      30.02F

CITY           SKY/WX    TMP DP  RH WIND       PRES   REMARKS
29 PALMS       SUNNY     88  36  15 SE10      30.05F
BARSTOW/DAGGET SUNNY     88  27  11 MISG      29.98F
BISHOP         SUNNY     82  21  10 SE9       30.04F
CHINA LAKE       N/A     88  36  15 SE6       29.98F
EDWARDS AFB    MOSUNNY   85  29  13 VRB7      29.99F
MOJAVE         FAIR      84  36  17 W21       30.03F
NEEDLES        SUNNY     95  34  11 VRB6      29.92F HX  90
VICTORVILLE    MOSUNNY   84  23  10 SE7G16    30.04F

$$

CAZ039-040-202300-
VENTURA AND SANTA BARBARA COUNTY COAST


CITY           SKY/WX    TMP DP  RH WIND       PRES   REMARKS
CAMARILLO      SUNNY     71  56  58 SW9       30.03F
NWS OXNARD       N/A     70  56  59 SW8       30.03F
OXNARD AIRPORT SUNNY     66  56  70 W9        30.04F
*POINT MUGU    MOSUNNY   69  58  67 SW8       30.04F
SBA APT/GOLETA SUNNY     69  53  56 VRB6      30.02F
*VENTURA         N/A     71  54  54 SW7       30.08S

$$

CAZ044-045-202300-
VENTURA COUNTY VALLEYS


CITY           SKY/WX    TMP DP  RH WIND       PRES   REMARKS
*SIMI VALLEY     N/A     76  54  47 W3        29.98S
*OJAI            N/A     83  56  39 W1        29.95F
*FILLMORE        N/A     78  55  46 SW6       29.92S

$$

CAZ053-202300-
VENTURA COUNTY MOUNTAINS


CITY           SKY/WX    TMP DP  RH WIND       PRES   REMARKS
*LOCKWOOD VLY    N/A     75  34  22 MISG        N/A
*ROSE VALLEY     N/A     77  54  44 MISG        N/A

$$

CAZ034-035-036-202300-
CENTRAL COAST AND SANTA YNEZ VALLEY


CITY           SKY/WX    TMP DP  RH WIND       PRES   REMARKS
SAN LUIS OBISP SUNNY     76  52  43 NW20G25   30.02S
SANTA MARIA    SUNNY     74  50  42 NW12      30.04F

CITY           SKY/WX    TMP DP  RH WIND       PRES   REMARKS
*CAL POLY SLO    N/A     79  57  47 W9G20       N/A
*LOMPOC        SUNNY     68  48  49 W15       30.05F
*PISMO BEACH     N/A     57  53  86 W5        30.05S
*SANTA YNEZ    FAIR      81  45  28 NW8       30.01F

$$

CAZ037-038-051-202300-
SAN LUIS OBISPO COUNTY INTERIOR AND CUYAMA VALLEY


CITY           SKY/WX    TMP DP  RH WIND       PRES   REMARKS
*CUYAMA          N/A     75  26  16 N3        29.91F
PASO ROBLES    SUNNY     82  40  22 VRB3      30.04F

$$

CAZ032-033-061-202300-
SOUTHERN DESERTS


CITY           SKY/WX    TMP DP  RH WIND       PRES   REMARKS
BLYTHE         SUNNY     93  41  16 VRB7      29.92F
IMPERIAL       SUNNY     93  45  19 E9        29.91F
PALM SPRINGS   MOSUNNY   92  45  19 SE12      29.94F
THERMAL        SUNNY     93  44  18 SE14      29.89F

$$

ELSEWHERE ACROSS THE WESTERN UNITED STATES AND MEXICO


CITY           SKY/WX    TMP DP  RH WIND       PRES   REMARKS
DENVER, CO     PTSUNNY   73  36  25 N10       30.02F
GRAND CANYON,  PTSUNNY   66  30  26 W6        30.20F
HONOLULU, HI   PTSUNNY   79  63  57 E20G25    30.13F
KAHULUI, MAUI  PTSUNNY   79  66  65 NE23G31   30.13S
LAKE TAHOE, CA SUNNY     63  18  17 VRB7      30.24F
LAS VEGAS, NV  MOSUNNY   90  32  12 VRB6      29.92F
MAMMOTH LAKES, FAIR      70   9   9 W8G17     30.22S
MEXICO CITY, M PTSUNNY   79  34  19 NW12      30.24F
PHOENIX, AZ    MOSUNNY   89  35  14 W7        29.94F
PORTLAND, OR   CLOUDY    62  41  46 NE7       30.20F
RENO, NV       MOSUNNY   72  16  12 VRB5      30.17F
SALT LAKE CITY PTSUNNY   70  23  17 NW10      30.13F
SAN DIEGO, CA  MOSUNNY   67  55  65 W9        30.05F
SAN FRANCISCO, SUNNY     78  45  30 W14       30.09F
SAN JOSE, CA   MOSUNNY   80  44  27 NW9       30.08F
SEATTLE, WA    CLOUDY    59  36  42 CALM      30.22F
TIJUANA, MEX   SUNNY     68  54  60 SW9       30.05F

$$

STATION/POSITION TIME  TEMP    WIND        PRES    VSBY  WAVE
                       AIR SEA DIR/SP/G                  HT/PER
                 (UTC) (F)     (DEG/KT/KT) (MB)    (MI)  (FT/S)
POINT ARGUELLO B NOT AVBL
WEST SANTA BARBA 2200   53 55  300/ 12/ 12 1017.1F         7/17
POINT CONCEPTION NOT AVBL
EAST SANTA BARBA NOT AVBL
SANTA MONICA BAY 2200   61 63  250/  6/  8 1017.3F         4/16



USA.gov is the U.S. government's official web portal to all federal, state and local government web resources and services.